Regional Weather Roundup
Issued by NWS Newport/Morehead, NC

Current Version | Previous Version | Text Only | Print | Product List | Glossary Off
Versions: 1 2 3 4 5 6 7 8 9 10 11 12 13 14 15 16 17 18 19 20 21 22 23 24 25 26 27 28 29 30 31 32 33 34 35 36 37 38 39 40 41 42 43 44 45 46 47 48 49 50
000 ASUS42 KMHX 220922 RWRMHX WEATHER ROUNDUP FOR EASTERN NORTH CAROLINA NATIONAL WEATHER SERVICE NEWPORT/MOREHEAD CITY NC 500 AM EDT FRI AUG 22 2014 NOTE: "FAIR" INDICATES FEW OR NO CLOUDS BELOW 12,000 FEET WITH NO SIGNIFICANT WEATHER AND/OR OBSTRUCTIONS TO VISIBILITY NCZ015>017-031-032-045>047-102-103-221000- NORTH COAST CITY SKY/WX TMP DP RH WIND PRES REMARKS EDENTON CLOUDY 74 73 94 CALM 29.97S ELIZABETH CITY CLOUDY 77 73 87 W12 29.96R FOG KITTY HAWK PTSUNNY 80 77 91 W3 29.94S MANTEO MOCLDY 79 75 89 W6 29.96R $$ NCZ045>047-081-094-103-104-221000- CENTRAL COAST CITY SKY/WX TMP DP RH WIND PRES REMARKS FRISCO PTCLDY 79 79 100 W5 29.95F SWANQUARTER N/A 81 N/A N/A W3 29.91S $$ NCZ095-097-098-100-101-221000- SOUTHERN COAST CITY SKY/WX TMP DP RH WIND PRES REMARKS BEAUFORT MOCLDY 80 73 79 W5 29.97F CEDAR ISLAND N/A 79 N/A N/A SW2 30.00S JACKSONVILLE PTCLDY 75 73 93 W5 29.98F NEWPORT NOT AVBL PINEY ISLAND MOSUNNY 79 77 94 SW7 29.96F WILMINGTON PTCLDY 76 73 91 CALM 29.99F $$ NCZ011>013-027>030-043-044-078>080-089-090>093-098-221000- COASTAL PLAIN CITY SKY/WX TMP DP RH WIND PRES REMARKS AHOSKIE MOCLDY 71 70 95 CALM 29.97F CLINTON MOCLDY 75 74 95 CALM 29.99F ELIZABETHTOWN MOCLDY 77 75 94 CALM 29.99S GOLDSBORO PTCLDY 76 75 98 SW3 29.96F GREENVILLE PTCLDY 73 73 100 NE5 30.00R FOG HAVELOCK MOCLDY 77 73 87 SW3 29.98F KENANSVILLE MOCLDY 73 71 95 CALM 30.00S FOG KINSTON PTCLDY 75 73 93 W5 29.99S NEW BERN PTCLDY 78 73 84 CALM 29.98F RICHLANDS MOCLDY 73 70 88 CALM 29.98F ROANOKE RAPIDS NOT AVBL ROCKY MOUNT CLEAR 73 72 96 CALM 29.98S FOG WASHINGTON PTCLDY 75 73 93 CALM 29.98S WHITEVILLE PTCLDY 76 74 93 CALM 29.98F $$ AMZ130-135-150-152-154-156-158-170-250-252-270-ANZ085-086-088-633-658-670-221000- MARINE OBSERVATIONS STATION/POSITION TIME TEMP WIND PRES WAVE SWELL AIR SEA DIR/SP/G HT/PER HT/PER (UTC) (F) (DEG/KT/KT) (MB) (FT/S) (FT/S) CHESAPEAKE LIGHT 0900 77 100/ 6/ 6 1014.4 BUOY 44014 0900 76 77 290/ 4/ 6 1014.0 2/ 7 2/ 7 DUCK 0900 81 78 260/ 7/ 9 1013.3 2E DUCK 0900 N/A 2/ 7 OREGON INLET 0900 81 83 240/ 8/ 10 1014.0 BUOY 44095 0900 80 N/A 2/ 8 20E OREGON INLET NOT AVBL HATTERAS CG 0900 81 82 230/ 5/ 6 1014.7 DIAMOND BUOY 0900 81 240/ 10/ 12 1014.1 2/ 8 2/ 8 CAPE LOOKOUT 0900 81 250/ 7/ 8 1014.8 BEAUFORT LAB 0900 80 83 280/ 1/ 3 1014.6 30 SE NEW RIVER 0900 82 83 270/ 12/ 12 1014.7 2/ 5 2/ 9 5 SE WRIGHTSVILL 0900 77 82 270/ 8/ 8 N/A BUOY 41002 NOT AVBL BUOY 41004 0900 84 84 250/ 10/ 14 1015.6 2/ 8 2/ 8 $$

USA.gov is the U.S. government's official web portal to all federal, state and local government web resources and services.